Flag for Bulgaria Weather past 2 weeks in Stara Zagora, Bulgaria

45 °F


Feels Like: 45 °F
Forecast: 41 / 54 °F
Wind: 1 mph from North

Location: Gorna Orechovista

Current Time: Nov 25, 2015 at 6:47:13 AM

Latest Report: Nov 25, 2015 at 6:00 AM

Visibility: 4 mi

Pressure: 29.98 "Hg

Humidity: 100%

Dew point: 45 °F

Location of Stara ZagoraLocation

Historic Weather in Stara Zagora — Graph


Stara Zagora temperature yesterday

Maximum temperature yesterday: 50 °F (at 12:00 PM)
Minimum temperature yesterday: 45 °F (at 8:00 AM)
Average temperature yesterday: 47 °F

Past Weeks' High & Low Weather Summary

High70 °F (Nov 11, 1:00 PM)100% (Nov 11, 9:30 PM)30.39 "Hg (Nov 11, 9:30 PM)
Low30 °F (Nov 20, 5:00 AM)29% (Nov 20, 2:30 PM)29.30 "Hg (Nov 22, 1:30 AM)
Average53 °F76%30.01 "Hg
* Reported Nov 10 5:00 AM — Nov 25 5:00 AM, Stara Zagora, Weather by CustomWeather, © 2015

Note: Actual official high and low records may vary slightly from our data, if they occured in-between our weather recording intervals... More about our weather records


Stara Zagora weather history for previous 24 hours

Time TempWeatherWind HumidityBarometerVisibility
5:00 AM
Wed, Nov 25
45 °FFog.No wind100%30.01 "Hg4 mi
4:30 AM45 °FOvercast.2 mph100%30.01 "Hg6 mi
4:00 AM45 °FMostly cloudy.5 mph100%30.04 "Hg6 mi
3:30 AM45 °FMostly cloudy.2 mph100%30.04 "HgN/A
3:00 AM45 °FMostly cloudy.2 mph100%30.07 "HgN/A
2:00 AM45 °FOvercast.5 mph100%30.07 "Hg5 mi
1:30 AM46 °FMostly cloudy.1 mph93%30.09 "Hg6 mi
1:00 AM46 °FMostly cloudy.2 mph93%30.09 "Hg5 mi
12:00 AM45 °FMostly cloudy.3 mph100%30.12 "Hg6 mi
11:30 PM
Tue, Nov 24
45 °FLow clouds.7 mph100%30.12 "Hg5 mi
11:00 PM45 °FSprinkles. Fog.5 mph100%30.12 "Hg4 mi
10:30 PM45 °FSprinkles. Mostly cloudy.3 mph100%30.12 "Hg5 mi
10:00 PM46 °FSprinkles. Overcast.7 mph93%30.15 "Hg5 mi
9:30 PM46 °FRain showers. Mostly cloudy.2 mph93%30.12 "Hg5 mi
9:00 PM45 °FLight rain. Low clouds.5 mph100%30.12 "Hg6 mi
8:30 PM45 °FRain showers. Overcast.3 mph100%30.12 "Hg4 mi
8:00 PM46 °FSprinkles. Mostly cloudy.7 mph93%30.15 "HgN/A
7:30 PM46 °FSprinkles. Overcast.8 mph93%30.15 "HgN/A
7:00 PM46 °FOvercast.6 mph93%30.15 "HgN/A
6:30 PM46 °FMostly cloudy.3 mph93%30.12 "HgN/A
6:00 PM46 °FMostly cloudy.No wind93%30.12 "HgN/A
5:30 PM46 °FOvercast.3 mph93%30.12 "HgN/A
5:00 PM46 °FOvercast.5 mph93%30.12 "HgN/A
4:30 PM46 °FOvercast.5 mph93%30.15 "HgN/A
4:00 PM46 °FLow clouds.6 mph93%30.12 "HgN/A
3:30 PM48 °FLow clouds.6 mph87%30.15 "HgN/A
3:00 PM48 °FOvercast.5 mph87%30.15 "HgN/A
2:30 PM46 °FMore clouds than sun.7 mph93%30.15 "HgN/A
2:00 PM48 °FMostly cloudy.7 mph87%30.15 "HgN/A
1:30 PM48 °FMore clouds than sun.8 mph87%30.15 "HgN/A
1:00 PM48 °FOvercast.9 mph87%30.15 "HgN/A
12:30 PM50 °FMore clouds than sun.9 mph82%30.15 "HgN/A
12:00 PM50 °FMostly cloudy.7 mph76%30.15 "HgN/A
11:30 AM48 °FCloudy.7 mph87%30.18 "HgN/A
11:00 AM48 °FCloudy.5 mph82%30.18 "HgN/A
10:30 AM46 °FOvercast.7 mph87%30.18 "HgN/A
10:00 AM46 °FOvercast.8 mph87%30.21 "HgN/A
9:00 AM45 °FMore clouds than sun.12 mph100%30.21 "Hg5 mi
8:30 AM45 °FDrizzle. Mostly cloudy.14 mph100%30.18 "Hg6 mi
8:00 AM45 °FFog.18 mph100%30.18 "Hg2 mi
7:30 AM46 °FLow clouds.18 mph93%30.15 "Hg4 mi
7:00 AM48 °FLow clouds.15 mph94%30.12 "Hg5 mi
6:30 AM46 °FFog.9 mph100%30.09 "Hg4 mi
6:00 AM46 °FFog.No wind100%30.09 "Hg2 mi
Weather by CustomWeather, © 2015

See weather overviewHow to use our weather pages